• Join FlightAware (Why Join?)
  • Login
  • US Flag 
06:25AM EDT


 

Airport Tracker/Info


-or-


 

Live Flight TrackerFlight Track Log ✈ EJA929 ✈ 09-Jul-2013 ✈ KTWF - KBZN

Flight Track Log - Related Links

Times and Time Zones

All times are in EDT time to prevent confusion due to time zone crossing. See the EJA929 flight status page for this flight to view local times or setup timezone preferences in your user account.

Time Position Orientation Groundspeed Altitude Reporting Facility
EDT Latitude Longitude Course Direction KTS MPH feet Rate Location/Type
07:37PM 42.5058 -114.5208 36° Northeast 192 221 7,000  Level Salt Lake Center
07:38PM 42.5031 -114.4328 92° East 226 260 11,000 3,300 Climbing Salt Lake Center
07:39PM 42.5125 -114.3308 83° East 276 318 13,900 2,520 Climbing Salt Lake Center
07:40PM 42.5306 -114.1806 81° East 387 445 16,300 1,980 Climbing Salt Lake Center
07:41PM 42.7056 -113.7166 48° Northeast  Level FlightAware Approximate
07:42PM 42.7909 -113.6258 36° Northeast  Level FlightAware Approximate
07:42PM 42.5542 -114.0236 78° East 408 470 18,000  Level Salt Lake Center
07:43PM 42.8784 -113.5384 36° Northeast  Level FlightAware Approximate
07:43PM 42.5889 -113.8656 73° East 421 484 20,300  Level Salt Lake Center
07:44PM 42.6764 -113.7581 42° Northeast 396 456 23,500 2,940 Climbing Salt Lake Center
07:45PM 42.7575 -113.6714 38° Northeast 390 449 26,400 1,680 Climbing Salt Lake Center
07:46PM 42.8575 -113.5647 38° Northeast 407 468 27,000 240 Climbing Salt Lake Center
07:47PM 42.9589 -113.4561 38° Northeast 476 548 27,000  Level Salt Lake Center
07:48PM 43.0658 -113.3397 38° Northeast 507 583 27,000  Level Salt Lake Center
07:49PM 43.1928 -113.2028 38° Northeast 518 596 27,000  Level Salt Lake Center
07:50PM 43.3036 -113.0817 38° Northeast 529 609 27,000  Level Salt Lake Center
07:51PM 43.4328 -112.9394 39° Northeast 533 613 27,000  Level Salt Lake Center
07:52PM 43.5436 -112.8167 39° Northeast 534 615 27,000  Level Salt Lake Center
07:53PM 43.6722 -112.6717 39° Northeast 535 616 27,000  Level Salt Lake Center
07:54PM 43.7850 -112.5508 38° Northeast 535 616 27,000  Level Salt Lake Center
07:55PM 43.9117 -112.4058 39° Northeast 529 609 27,000  Level Salt Lake Center
07:56PM 44.0225 -112.2811 39° Northeast 534 615 27,000  Level Salt Lake Center
07:57PM 44.1622 -112.1589 32° Northeast 535 616 27,000  Level Salt Lake Center
07:58PM 44.2881 -112.0756 25° Northeast 526 605 27,000  Level Salt Lake Center
07:59PM 44.4150 -111.9917 25° Northeast 525 604 27,000 -960 Level Salt Lake Center
08:00PM 44.5631 -111.8942 25° Northeast 523 602 25,100 -2,340 Descending Salt Lake Center
08:01PM 44.6819 -111.8153 25° Northeast 497 572 22,200 -3,600 Descending Salt Lake Center
08:02PM 44.8128 -111.7258 26° Northeast 467 537 17,700 -3,900 Descending Salt Lake Center
08:03PM 44.9197 -111.6531 26° Northeast 455 524 14,200 -1,860 Descending Salt Lake Center
08:04PM 45.0133 -111.5894 26° Northeast 413 475 14,000 -120 Descending Salt Lake Center
08:05PM 45.1194 -111.5183 25° Northeast 381 438 14,000  Level Salt Lake Center
08:06PM 45.2072 -111.4578 26° Northeast 388 447 14,000  Level Salt Lake Center
08:07PM 45.3297 -111.3744 26° Northeast 403 464 14,000  Level Salt Lake Center
08:08PM 45.4253 -111.3078 26° Northeast 390 449 14,000  Level Salt Lake Center
08:09PM 45.5128 -111.2475 26° Northeast 357 411 14,000 -1,020 Level Salt Lake Center
08:10PM 45.5839 -111.1981 26° Northeast 296 341 12,000 -2,220 Descending Salt Lake Center
08:11PM 45.6478 -111.1542 26° Northeast 276 318 9,500 -2,400 Descending Salt Lake Center
08:12PM 45.6917 -111.1222 27° Northeast 212 244 7,200 -1,860 Descending Salt Lake Center
08:13PM 45.7394 -111.1119 North 165 190 5,700 -1,320 Descending Salt Lake Center
08:15PM 45.7694 -111.1406 326° Northwest 141 162 4,500 -1,200 Descending Salt Lake Center